| time (UTC) | temp F | wind direction | speed MPH | gust MPH | rain 1hr in | rain 24hr in | rain mn in | humidity % | barometer mb |
| 20260510033022 | 74 | 30 | 0.0 | 2.0 | 0.00 | 0.02 | 0.02 | 83 | 1011.6 |
| 20260510031530 | 75 | 30 | 0.0 | 0.0 | 0.00 | 0.02 | 0.02 | 82 | 1011.4 |
| 20260510030011 | 76 | 30 | 0.0 | 2.0 | 0.00 | 0.02 | 0.02 | 80 | 1011.0 |
| 20260510024516 | 76 | 55 | 1.0 | 3.0 | 0.00 | 0.02 | 0.02 | 81 | 1011.0 |
| 20260510023020 | 77 | 84 | 0.0 | 2.0 | 0.00 | 0.02 | 0.02 | 80 | 1010.6 |
| 20260510021529 | 77 | 37 | 1.0 | 4.0 | 0.00 | 0.02 | 0.02 | 79 | 1010.4 |
| 20260510020030 | 77 | 348 | 1.0 | 2.0 | 0.00 | 0.02 | 0.02 | 78 | 1010.4 |
| 20260510014513 | 78 | 30 | 0.0 | 2.0 | 0.00 | 0.02 | 0.02 | 76 | 1010.2 |
| 20260510013019 | 79 | 30 | 0.0 | 2.0 | 0.00 | 0.02 | 0.02 | 74 | 1010.0 |
| 20260510011522 | 80 | 30 | 0.0 | 2.0 | 0.00 | 0.02 | 0.02 | 71 | 1009.9 |
| 20260510010025 | 81 | 35 | 0.0 | 2.0 | 0.00 | 0.02 | 0.02 | 68 | 1009.8 |
| 20260510004512 | 82 | 50 | 1.0 | 3.0 | 0.00 | 0.02 | 0.02 | 65 | 1009.7 |
| 20260510003018 | 83 | 71 | 1.0 | 3.0 | 0.00 | 0.02 | 0.02 | 61 | 1009.7 |
| 20260510001522 | 83 | 28 | 2.0 | 7.0 | 0.00 | 0.02 | 0.02 | 57 | 1009.4 |
| 20260510000005 | 84 | 55 | 3.0 | 6.0 | 0.00 | 0.02 | 0.02 | 54 | 1009.3 |
| 20260509234507 | 85 | 59 | 2.0 | 6.0 | 0.00 | 0.02 | 0.02 | 48 | 1009.1 |
| 20260509233019 | 85 | 50 | 3.0 | 8.0 | 0.00 | 0.02 | 0.02 | 47 | 1009.0 |
| 20260509231520 | 85 | 9 | 2.0 | 10.0 | 0.00 | 0.02 | 0.02 | 51 | 1009.0 |
| 20260509230026 | 86 | 30 | 2.0 | 8.0 | 0.00 | 0.02 | 0.02 | 53 | 1009.1 |
| 20260509224505 | 87 | 37 | 1.0 | 5.0 | 0.00 | 0.02 | 0.02 | 54 | 1008.9 |
| 20260509223014 | 87 | 325 | 2.0 | 5.0 | 0.00 | 0.02 | 0.02 | 56 | 1008.9 |
| 20260509221517 | 87 | 94 | 1.0 | 4.0 | 0.00 | 0.02 | 0.02 | 55 | 1009.0 |
| 20260509220035 | 86 | 96 | 1.0 | 3.0 | 0.00 | 0.02 | 0.02 | 59 | 1008.9 |
| 20260509214530 | 85 | 344 | 1.0 | 5.0 | 0.00 | 0.02 | 0.02 | 58 | 1008.9 |
| 20260509213014 | 82 | 111 | 2.0 | 7.0 | 0.00 | 0.02 | 0.02 | 60 | 1009.1 |
| 20260509211519 | 80 | 66 | 3.0 | 13.0 | 0.00 | 0.02 | 0.02 | 60 | 1009.5 |
| 20260509210020 | 80 | 30 | 5.0 | 12.0 | 0.00 | 0.02 | 0.02 | 59 | 1010.1 |
| 20260509204526 | 81 | 50 | 5.0 | 15.0 | 0.00 | 0.02 | 0.02 | 55 | 1009.9 |
| 20260509203036 | 89 | 13 | 1.0 | 8.0 | 0.00 | 0.02 | 0.02 | 49 | 1009.9 |
| 20260509201514 | 88 | 352 | 0.0 | 4.0 | 0.00 | 0.02 | 0.02 | 53 | 1009.7 |
| 20260509200020 | 90 | 69 | 2.0 | 12.0 | 0.00 | 0.02 | 0.02 | 52 | 1009.9 |
| 20260509194534 | 88 | 71 | 2.0 | 7.0 | 0.00 | 0.02 | 0.02 | 54 | 1010.0 |
| 20260509193032 | 88 | 183 | 3.0 | 9.0 | 0.00 | 0.02 | 0.02 | 56 | 1010.3 |
| 20260509191513 | 90 | 113 | 4.0 | 9.0 | 0.00 | 0.02 | 0.02 | 52 | 1010.5 |
| 20260509190018 | 88 | 86 | 2.0 | 8.0 | 0.00 | 0.02 | 0.02 | 56 | 1010.8 |
| 20260509184523 | 87 | 142 | 1.0 | 8.0 | 0.00 | 0.02 | 0.02 | 58 | 1011.0 |
| 20260509183030 | 86 | 65 | 3.0 | 7.0 | 0.00 | 0.02 | 0.02 | 59 | 1011.3 |
| 20260509181525 | 88 | 169 | 4.0 | 7.0 | 0.00 | 0.02 | 0.02 | 58 | 1011.4 |
| 20260509180017 | 85 | 133 | 2.0 | 4.0 | 0.00 | 0.02 | 0.02 | 63 | 1011.3 |
| 20260509174537 | 86 | 207 | 2.0 | 5.0 | 0.00 | 0.02 | 0.02 | 66 | 1011.8 |
| 20260509173024 | 84 | 68 | 1.0 | 8.0 | 0.00 | 0.02 | 0.02 | 69 | 1011.9 |
| 20260509171537 | 83 | 88 | 2.0 | 8.0 | 0.00 | 0.02 | 0.02 | 70 | 1011.9 |
| 20260509170032 | 81 | 86 | 2.0 | 4.0 | 0.00 | 0.02 | 0.02 | 73 | 1012.1 |
| 20260509164517 | 83 | 54 | 2.0 | 8.0 | 0.00 | 0.02 | 0.02 | 71 | 1012.1 |
| 20260509163034 | 82 | 238 | 2.0 | 6.0 | 0.00 | 0.02 | 0.02 | 75 | 1012.1 |
| 20260509161532 | 81 | 90 | 2.0 | 8.0 | 0.00 | 0.02 | 0.02 | 78 | 1012.0 |
| 20260509160026 | 79 | 44 | 2.0 | 7.0 | 0.00 | 0.02 | 0.02 | 81 | 1012.0 |
| 20260509154505 | 78 | 198 | 3.0 | 7.0 | 0.00 | 0.02 | 0.02 | 84 | 1012.2 |
| 20260509153004 | 77 | 140 | 3.0 | 9.0 | 0.00 | 0.02 | 0.02 | 87 | 1012.3 |
| 20260509151505 | 74 | 35 | 2.0 | 8.0 | 0.00 | 0.02 | 0.02 | 94 | 1012.3 |
| 20260509150014 | 73 | 78 | 1.0 | 7.0 | 0.00 | 0.02 | 0.02 | 95 | 1012.3 |
| 20260509144504 | 73 | 83 | 2.0 | 8.0 | 0.00 | 0.02 | 0.02 | 95 | 1011.8 |
| 20260509143007 | 72 | 101 | 1.0 | 6.0 | 0.00 | 0.02 | 0.02 | 95 | 1011.8 |
| 20260509141507 | 72 | 55 | 2.0 | 7.0 | 0.00 | 0.02 | 0.02 | 95 | 1011.5 |
| 20260509140006 | 72 | 103 | 1.0 | 2.0 | 0.00 | 0.02 | 0.02 | 95 | 1011.5 |
| 20260509134504 | 72 | 276 | 0.0 | 3.0 | 0.00 | 0.02 | 0.02 | 95 | 1011.9 |
| 20260509133008 | 71 | 259 | 0.0 | 3.0 | 0.00 | 0.02 | 0.02 | 95 | 1012.0 |
| 20260509131506 | 71 | 352 | 1.0 | 3.0 | 0.00 | 0.02 | 0.02 | 95 | 1012.2 |
| 20260509130008 | 71 | 325 | 1.0 | 3.0 | 0.00 | 0.02 | 0.02 | 95 | 1011.7 |
| 20260509124507 | 71 | 308 | 0.0 | 2.0 | 0.00 | 0.02 | 0.02 | 95 | 1011.4 |
| 20260509123006 | 71 | 302 | 0.0 | 2.0 | 0.00 | 0.02 | 0.02 | 95 | 1011.6 |
| 20260509121512 | 71 | 294 | 0.0 | 2.0 | 0.00 | 0.02 | 0.02 | 95 | 1011.6 |
| 20260509120010 | 71 | 294 | 0.0 | 3.0 | 0.00 | 0.02 | 0.02 | 95 | 1011.8 |
| 20260509114512 | 71 | 284 | 0.0 | 2.0 | 0.00 | 0.02 | 0.02 | 95 | 1011.7 |
| 20260509113014 | 71 | 296 | 1.0 | 2.0 | 0.00 | 0.02 | 0.02 | 95 | 1012.3 |
| 20260509111514 | 71 | 352 | 1.0 | 4.0 | 0.00 | 0.02 | 0.02 | 95 | 1012.5 |
| 20260509110012 | 71 | 246 | 1.0 | 4.0 | 0.00 | 0.02 | 0.02 | 95 | 1012.5 |
| 20260509104514 | 71 | 275 | 2.0 | 3.0 | 0.00 | 0.02 | 0.02 | 95 | 1012.5 |
| 20260509103012 | 71 | 298 | 0.0 | 2.0 | 0.00 | 0.02 | 0.02 | 95 | 1012.4 |
| 20260509101514 | 71 | 360 | 0.0 | 2.0 | 0.01 | 0.02 | 0.02 | 95 | 1012.0 |
| 20260509100017 | 71 | 360 | 0.0 | 2.0 | 0.01 | 0.02 | 0.02 | 94 | 1011.5 |
| 20260509094514 | 71 | 15 | 0.0 | 2.0 | 0.02 | 0.02 | 0.02 | 94 | 1011.2 |
| 20260509093013 | 71 | 350 | 0.0 | 2.0 | 0.02 | 0.02 | 0.02 | 94 | 1011.4 |
| 20260509091517 | 71 | 352 | 0.0 | 2.0 | 0.01 | 0.01 | 0.01 | 94 | 1011.2 |
| 20260509090020 | 71 | 351 | 0.0 | 2.0 | 0.01 | 0.01 | 0.01 | 94 | 1011.2 |
| 20260509084523 | 71 | 28 | 0.0 | 2.0 | 0.00 | 0.00 | 0.00 | 94 | 1011.4 |
| 20260509083017 | 71 | 352 | 0.0 | 2.0 | 0.00 | 0.00 | 0.00 | 93 | 1011.5 |
| 20260509081520 | 71 | 296 | 1.0 | 2.0 | 0.00 | 0.00 | 0.00 | 93 | 1011.5 |
| 20260509080018 | 72 | 41 | 0.0 | 2.0 | 0.00 | 0.00 | 0.00 | 92 | 1011.4 |
| 20260509074522 | 72 | 352 | 1.0 | 2.0 | 0.00 | 0.00 | 0.00 | 92 | 1011.3 |
| 20260509073020 | 72 | 105 | 0.0 | 2.0 | 0.00 | 0.00 | 0.00 | 91 | 1011.3 |
| 20260509071518 | 72 | 94 | 0.0 | 2.0 | 0.00 | 0.00 | 0.00 | 91 | 1011.5 |
| 20260509070022 | 72 | 124 | 0.0 | 3.0 | 0.00 | 0.00 | 0.00 | 91 | 1011.7 |
| 20260509064524 | 72 | 135 | 1.0 | 6.0 | 0.00 | 0.00 | 0.00 | 91 | 1011.5 |
| 20260509063026 | 72 | 110 | 2.0 | 5.0 | 0.00 | 0.00 | 0.00 | 91 | 1011.1 |
| 20260509061511 | 72 | 58 | 3.0 | 7.0 | 0.00 | 0.00 | 0.00 | 91 | 1011.2 |
| 20260509060016 | 72 | 68 | 3.0 | 9.0 | 0.00 | 0.00 | 0.00 | 90 | 1011.3 |
| 20260509054523 | 72 | 72 | 3.0 | 9.0 | 0.00 | 0.00 | 0.00 | 90 | 1011.0 |
| 20260509053022 | 72 | 137 | 2.0 | 7.0 | 0.00 | 0.00 | 0.00 | 90 | 1011.3 |
| 20260509051508 | 72 | 91 | 3.0 | 8.0 | 0.00 | 0.00 | 0.00 | 91 | 1011.1 |
| 20260509050037 | 71 | 84 | 1.0 | 4.0 | 0.00 | 0.00 | 0.00 | 91 | 1010.9 |
| 20260509044520 | 71 | 51 | 1.0 | 3.0 | 0.00 | 0.00 | 0.00 | 91 | 1010.7 |
| 20260509043024 | 71 | 49 | 1.0 | 3.0 | 0.00 | 0.00 | 0.00 | 91 | 1010.7 |
| 20260509041523 | 71 | 64 | 0.0 | 3.0 | 0.00 | 0.00 | 0.00 | 89 | 1010.9 |
| 20260509040013 | 71 | 116 | 1.0 | 2.0 | 0.00 | 0.00 | 0.00 | 89 | 1011.2 |
| 20260509034518 | 72 | 93 | 0.0 | 2.0 | 0.00 | 0.00 | 0.00 | 88 | 1011.1 |